Weather History for Hickory, NC

Change the Weather History Date:

Saturday, October 5, 2013

  Actual Average Record
Temperature  
Mean Temperature 74 °F -  
Max Temperature 84 °F 74 °F 107 °F (1996)
Min Temperature 63 °F 50 °F 34 °F (1968)
Cooling Degree Days 8    
Growing Degree Days 24 (Base 50)    
Moisture  
Dew Point 62 °F    
Average Humidity 74    
Maximum Humidity 93    
Minimum Humidity 46    
Precipitation  
Precipitation 0.00 in - - ()
Sea Level Pressure  
Sea Level Pressure 30.06 in    
Wind  
Wind Speed 2 mph (West)    
Max Wind Speed 7 mph    
Max Gust Speed -    
Visibility 9 miles    
Events      
Averages and records for this station are not official NWS values.
T = Trace of Precipitation, MM = Missing Value Source: NWS Daily Summary

Daily Weather History Graph

Daily Weather History Graph

Search for Another Location

Airport:

Trip Planner

Search our weather history database for the weather conditions in past years. The results will help you decide how hot, cold, wet, or windy it might be!

Date:

Astronomy

Oct. 05, 2013 Rise Set
Actual Time 7:23 AM EDT 7:03 PM EDT
Civil Twilight 6:58 AM EDT 7:28 PM EDT
Nautical Twilight 6:28 AM EDT 7:58 PM EDT
Astronomical Twilight 5:59 AM EDT 8:27 PM EDT
Moon 7:59 AM EDT (10/5) 7:24 PM EDT (10/5)
Length of Visible Light 12h 30m
Length of Day
11h 39m
New Moon, 0% of the Moon is Illuminated
Oct 5
New Moon
Oct 11
First Quarter
Oct 18
Full
Oct 26
Last Quarter
Nov 3
New

Hourly Weather History & Observations

Time (EDT) Temp. Heat Index Dew Point Humidity Pressure Visibility Wind Dir Wind Speed Gust Speed Precip Events Conditions
12:53 AM 64.0 °F - 62.1 °F 93% 30.07 in 8.0 mi Calm Calm - N/A   Clear
1:53 AM 64.9 °F - 62.1 °F 90% 30.08 in 9.0 mi WNW 3.5 mph - N/A   Clear
2:53 AM 64.9 °F - 62.1 °F 90% 30.07 in 9.0 mi WNW 5.8 mph - N/A   Clear
3:53 AM 64.0 °F - 62.1 °F 93% 30.06 in 8.0 mi Calm Calm - N/A   Clear
4:53 AM 63.0 °F - 60.1 °F 90% 30.06 in 9.0 mi Calm Calm - N/A   Clear
5:53 AM 63.0 °F - 60.1 °F 90% 30.08 in 9.0 mi NW 3.5 mph - N/A   Clear
6:53 AM 63.0 °F - 61.0 °F 93% 30.09 in 6.0 mi WNW 3.5 mph - N/A   Clear
7:53 AM 63.0 °F - 60.1 °F 90% 30.10 in 6.0 mi Calm Calm - N/A   Clear
8:53 AM 64.9 °F - 62.1 °F 90% 30.11 in 10.0 mi WNW 4.6 mph - N/A   Clear
9:53 AM 68.0 °F - 63.0 °F 84% 30.12 in 10.0 mi Calm Calm - N/A   Clear
10:53 AM 73.9 °F - 63.0 °F 68% 30.12 in 10.0 mi Calm Calm - N/A   Clear
11:53 AM 79.0 °F - 64.0 °F 60% 30.10 in 10.0 mi Calm Calm - N/A   Clear
12:53 PM 81.0 °F 81.7 °F 61.0 °F 50% 30.09 in 10.0 mi South 5.8 mph - N/A   Clear
1:53 PM 82.9 °F 83.2 °F 60.1 °F 46% 30.06 in 10.0 mi Calm Calm - N/A   Clear
2:53 PM 82.9 °F 83.3 °F 61.0 °F 47% 30.04 in 10.0 mi SW 4.6 mph - N/A   Clear
3:53 PM 84.0 °F 84.4 °F 61.0 °F 46% 30.03 in 10.0 mi Variable 5.8 mph - N/A   Clear
4:53 PM 82.0 °F 83.0 °F 62.1 °F 51% 30.02 in 10.0 mi South 6.9 mph - N/A   Clear
5:53 PM 82.0 °F 83.0 °F 62.1 °F 51% 30.01 in 10.0 mi SSW 3.5 mph - N/A   Clear
6:53 PM 78.1 °F - 64.0 °F 62% 30.01 in 10.0 mi Calm Calm - N/A   Clear
7:53 PM 73.0 °F - 64.0 °F 73% 30.02 in 10.0 mi Calm Calm - N/A   Clear
8:53 PM 71.1 °F - 64.0 °F 78% 30.04 in 10.0 mi Calm Calm - N/A   Clear
9:53 PM 70.0 °F - 63.0 °F 78% 30.04 in 10.0 mi Calm Calm - N/A   Clear
10:53 PM 70.0 °F - 63.0 °F 78% 30.04 in 10.0 mi Calm Calm - N/A   Clear
11:53 PM 66.9 °F - 64.0 °F 90% 30.03 in 8.0 mi Calm Calm - N/A   Clear